Time,TemperatureF,DewpointF,PressureIn,WindDirection,WindDirectionDegrees,WindSpeedMPH,WindSpeedGustMPH,Humidity,HourlyPrecipIn,Conditions,Clouds,dailyrainin,SoftwareType,DateUTC
2013-06-09 00:00:00,50.0,-99.9,-100.00,South,185,3.0,5.0,-999,-99.99,,,-99.99,,2013-06-09 06:00:00,
2013-06-09 00:52:00,50.0,-99.9,-100.00,South,185,3.0,5.0,-999,-99.99,,,-99.99,,2013-06-09 06:52:00,
2013-06-09 01:00:00,48.0,-99.9,-100.00,South,185,5.0,5.0,-999,-99.99,,,-99.99,,2013-06-09 07:00:00,
2013-06-09 01:53:00,48.0,-99.9,-100.00,South,185,5.0,5.0,-999,-99.99,,,-99.99,,2013-06-09 07:53:00,
2013-06-09 02:00:00,46.0,-99.9,-100.00,South,185,4.0,6.0,-999,-99.99,,,-99.99,,2013-06-09 08:00:00,
2013-06-09 02:53:00,46.0,-99.9,-100.00,South,185,4.0,6.0,-999,-99.99,,,-99.99,,2013-06-09 08:53:00,
2013-06-09 03:53:00,44.0,-99.9,-100.00,South,185,3.0,7.0,-999,-99.99,,,-99.99,,2013-06-09 09:53:00,
2013-06-09 04:00:00,46.0,-99.9,-100.00,South,185,6.0,10.0,-999,-99.99,,,-99.99,,2013-06-09 10:00:00,
2013-06-09 04:52:00,46.0,-99.9,-100.00,South,185,6.0,10.0,-999,-99.99,,,-99.99,,2013-06-09 10:52:00,
2013-06-09 05:53:00,46.0,-99.9,-100.00,South,185,2.0,4.0,-999,-99.99,,,-99.99,,2013-06-09 11:53:00,
2013-06-09 06:00:00,46.0,-99.9,-100.00,South,185,13.0,14.0,-999,-99.99,,,-99.99,,2013-06-09 12:00:00,
2013-06-09 06:03:00,46.0,-99.9,-100.00,South,185,2.0,4.0,-999,-99.99,,,-99.99,,2013-06-09 12:03:00,
2013-06-09 06:53:00,46.0,-99.9,-100.00,South,185,13.0,14.0,-999,-99.99,,,-99.99,,2013-06-09 12:53:00,
2013-06-09 07:00:00,51.0,-99.9,-100.00,South,185,5.0,9.0,-999,-99.99,,,-99.99,,2013-06-09 13:00:00,
2013-06-09 07:52:00,51.0,-99.9,-100.00,South,185,5.0,9.0,-999,-99.99,,,-99.99,,2013-06-09 13:52:00,
2013-06-09 08:00:00,57.0,-99.9,-100.00,South,185,6.0,9.0,-999,-99.99,,,-99.99,,2013-06-09 14:00:00,
2013-06-09 08:52:00,57.0,-99.9,-100.00,South,185,6.0,9.0,-999,-99.99,,,-99.99,,2013-06-09 14:52:00,
2013-06-09 09:00:00,60.0,-99.9,-100.00,South,185,8.0,13.0,-999,-99.99,,,-99.99,,2013-06-09 15:00:00,
2013-06-09 09:53:00,60.0,-99.9,-100.00,South,185,8.0,13.0,-999,-99.99,,,-99.99,,2013-06-09 15:53:00,
2013-06-09 10:00:00,66.0,-99.9,-100.00,South,185,11.0,15.0,-999,-99.99,,,-99.99,,2013-06-09 16:00:00,
2013-06-09 10:53:00,66.0,-99.9,-100.00,South,185,11.0,15.0,-999,-99.99,,,-99.99,,2013-06-09 16:53:00,
2013-06-09 11:00:00,68.0,-99.9,-100.00,South,185,12.0,17.0,-999,-99.99,,,-99.99,,2013-06-09 17:00:00,
2013-06-09 11:52:00,68.0,-99.9,-100.00,South,185,12.0,17.0,-999,-99.99,,,-99.99,,2013-06-09 17:52:00,
2013-06-09 12:00:00,69.0,-99.9,-100.00,South,185,10.0,13.0,-999,-99.99,,,-99.99,,2013-06-09 18:00:00,
2013-06-09 12:52:00,69.0,-99.9,-100.00,South,185,10.0,13.0,-999,-99.99,,,-99.99,,2013-06-09 18:52:00,
2013-06-09 13:52:00,73.0,-99.9,-100.00,South,185,2.0,9.0,-999,-99.99,,,-99.99,,2013-06-09 19:52:00,
2013-06-09 14:00:00,75.0,-99.9,-100.00,South,185,8.0,8.0,-999,-99.99,,,-99.99,,2013-06-09 20:00:00,
2013-06-09 14:03:00,73.0,-99.9,-100.00,South,185,6.0,8.0,-999,-99.99,,,-99.99,,2013-06-09 20:03:00,
2013-06-09 14:12:00,73.0,-99.9,-100.00,South,185,6.0,8.0,-999,-99.99,,,-99.99,,2013-06-09 20:12:00,
2013-06-09 14:22:00,73.0,-99.9,-100.00,South,185,6.0,8.0,-999,-99.99,,,-99.99,,2013-06-09 20:22:00,
2013-06-09 14:53:00,75.0,-99.9,-100.00,South,185,8.0,8.0,-999,-99.99,,,-99.99,,2013-06-09 20:53:00,
2013-06-09 15:00:00,73.0,-99.9,-100.00,SW,214,4.0,9.0,-999,-99.99,,,-99.99,,2013-06-09 21:00:00,
2013-06-09 15:53:00,73.0,-99.9,-100.00,SW,214,4.0,9.0,-999,-99.99,,,-99.99,,2013-06-09 21:53:00,
2013-06-09 16:00:00,77.0,-99.9,-100.00,SW,230,5.0,9.0,-999,-99.99,,,-99.99,,2013-06-09 22:00:00,
2013-06-09 16:52:00,77.0,-99.9,-100.00,SW,230,5.0,9.0,-999,-99.99,,,-99.99,,2013-06-09 22:52:00,
2013-06-09 17:00:00,84.0,-99.9,-100.00,SW,230,3.0,6.0,-999,-99.99,,,-99.99,,2013-06-09 23:00:00,
2013-06-09 17:52:00,84.0,-99.9,-100.00,SW,230,3.0,6.0,-999,-99.99,,,-99.99,,2013-06-09 23:52:00,
2013-06-09 18:52:00,91.0,-99.9,-100.00,NE,50,6.0,6.0,-999,-99.99,,,-99.99,,2013-06-10 00:52:00,
2013-06-09 19:00:00,82.0,-99.9,-100.00,South,185,3.0,8.0,-999,-99.99,,,-99.99,,2013-06-10 01:00:00,
2013-06-09 19:52:00,82.0,-99.9,-100.00,South,185,3.0,8.0,-999,-99.99,,,-99.99,,2013-06-10 01:52:00,
2013-06-09 20:00:00,68.0,-99.9,-100.00,South,185,5.0,7.0,-999,-99.99,,,-99.99,,2013-06-10 02:00:00,
2013-06-09 20:52:00,68.0,-99.9,-100.00,South,185,5.0,7.0,-999,-99.99,,,-99.99,,2013-06-10 02:52:00,
2013-06-09 21:00:00,62.0,-99.9,-100.00,South,185,7.0,9.0,-999,-99.99,,,-99.99,,2013-06-10 03:00:00,
2013-06-09 21:53:00,62.0,-99.9,-100.00,South,185,7.0,9.0,-999,-99.99,,,-99.99,,2013-06-10 03:53:00,
2013-06-09 22:00:00,59.0,-99.9,-100.00,South,185,5.0,7.0,-999,-99.99,,,-99.99,,2013-06-10 04:00:00,
2013-06-09 22:53:00,59.0,-99.9,-100.00,South,185,5.0,7.0,-999,-99.99,,,-99.99,,2013-06-10 04:53:00,
2013-06-09 23:00:00,55.0,-99.9,-100.00,South,185,4.0,4.0,-999,-99.99,,,-99.99,,2013-06-10 05:00:00,
2013-06-09 23:52:00,55.0,-99.9,-100.00,South,185,4.0,4.0,-999,-99.99,,,-99.99,,2013-06-10 05:52:00,